Location: Cactus School
(34.5700°N, 118.0931°W)
Time: 16:40:12
(UTC-07:00)

Courier 1B Rocket - Visible Passes

Search period start: 16 April 2024 00:00
Search period end: 26 April 2024 00:00
Orbit: 920 x 1201 km, 28.2° (Epoch: 16 April)

Date Brightness Start Highest point End Pass type
(mag) Time Alt. Az. Time Alt. Az. Time Alt. Az.
16 Apr 7.2 04:05:43 13° SSE 04:07:23 14° SSE 04:10:45 10° ESE visible
17 Apr 6.6 04:54:40 15° SSW 04:59:14 26° SSE 05:04:54 10° ESE visible
18 Apr 6.8 03:57:12 20° SSE 03:58:09 20° SSE 04:03:14 10° ESE visible
18 Apr 6.0 05:44:23 10° SW 05:51:12 40° SSE 05:57:35 10° E visible
19 Apr 7.4 02:59:43 12° SE 02:59:43 12° SE 03:00:58 10° ESE visible
19 Apr 6.2 04:46:04 21° SSW 04:50:03 34° SSE 04:56:21 10° E visible
20 Apr 6.4 03:48:32 28° SSE 03:48:55 28° SSE 03:54:57 10° ESE visible
20 Apr 5.8 05:34:57 10° WSW 05:42:05 47° S 05:48:46 10° E visible
21 Apr 7.2 02:50:58 17° ESE 02:50:58 17° ESE 02:53:14 10° ESE visible
21 Apr 5.9 04:37:18 26° SW 04:40:54 42° SSE 04:47:38 10° E visible
22 Apr 6.1 03:39:43 36° SSE 03:39:43 36° SSE 03:46:20 10° E visible
22 Apr 5.7 05:26:03 12° WSW 05:33:00 52° S 05:39:53 10° ESE visible
23 Apr 7.0 02:42:07 20° ESE 02:42:07 20° ESE 02:44:52 10° ESE visible
23 Apr 5.7 04:28:27 31° SW 04:31:45 49° S 04:38:46 10° E visible
24 Apr 5.8 03:30:50 43° SSE 03:30:50 43° SSE 03:37:32 10° E visible
24 Apr 5.6 05:17:10 13° WSW 05:23:54 54° S 05:30:55 10° ESE visible
25 Apr 6.9 02:33:13 23° ESE 02:33:13 23° ESE 02:36:09 10° E visible
25 Apr 5.6 04:19:33 35° SW 04:22:37 53° S 04:29:50 10° ESE visible
